When you browse on this site, cookies collect data to enhance your experience and personalize the content and advertising you see.
Visit our Privacy Policy to learn more. By continuing to use the site, you agree to this use of cookies and data.
  • en Suisse
  • Liste des pays
  • À 7 jours
  • Température de l'eau
  • Carte satellitaire
  • Carte météo
  • Widgets météo
  • user-avatar
    Se connecter

    Météo par heure à Gornoe

    Ce jour, 20 Février, Mercredi

    Heure Température Précipitation Vent Pression Humidité
    00:00 -17°C° 0 mm 1 m/s 728 mmHg 97%
    01:00 -17°C° 0 mm 1 m/s 728 mmHg 97%
    02:00 -18°C° 0 mm 1 m/s 728 mmHg 98%
    03:00 -19°C° 0 mm 1 m/s 729 mmHg 98%
    04:00 -20°C° 0 mm 0 m/s 728 mmHg 99%
    05:00 -20°C° 0 mm 0 m/s 729 mmHg 99%
    06:00 -20°C° 0 mm 0 m/s 729 mmHg 99%
    07:00 -20°C° 0 mm 0 m/s 729 mmHg 99%
    08:00 -18°C° 0 mm 1 m/s 730 mmHg 96%
    09:00 -17°C° 0 mm 1 m/s 730 mmHg 93%
    10:00 -15°C° 0 mm 1 m/s 731 mmHg 91%
    11:00 -16°C° 0 mm 2 m/s 731 mmHg 90%
    12:00 -15°C° 0 mm 2 m/s 731 mmHg 88%
    13:00 -15°C° 0 mm 3 m/s 731 mmHg 87%
    14:00 -15°C° 0 mm 3 m/s 730 mmHg 88%
    15:00 -14°C° 0 mm 3 m/s 730 mmHg 89%
    16:00 -14°C° 0 mm 3 m/s 730 mmHg 90%
    17:00 -16°C° 0 mm 4 m/s 730 mmHg 91%
    18:00 -17°C° 0 mm 4 m/s 730 mmHg 92%
    19:00 -17°C° 0 mm 4 m/s 730 mmHg 92%
    20:00 -18°C° 0 mm 5 m/s 730 mmHg 92%
    21:00 -17°C° 0 mm 5 m/s 729 mmHg 91%
    22:00 -17°C° 0 mm 6 m/s 729 mmHg 90%
    23:00 -16°C° 0 mm 6 m/s 729 mmHg 90%

    Demain, 21 Février, Jeudi

    Heure Température Précipitation Vent Pression Humidité
    00:00 -16°C° 0 mm 6 m/s 728 mmHg 89%
    01:00 -16°C° 0 mm 6 m/s 728 mmHg 89%
    02:00 -15°C° 0.1 mm 6 m/s 728 mmHg 90%
    03:00 -15°C° 0.1 mm 6 m/s 728 mmHg 90%
    04:00 -14°C° 0.1 mm 6 m/s 727 mmHg 91%
    05:00 -14°C° 0.1 mm 6 m/s 727 mmHg 91%
    06:00 -14°C° 0.1 mm 6 m/s 727 mmHg 91%
    07:00 -12°C° 0.1 mm 6 m/s 727 mmHg 91%
    08:00 -12°C° 0.1 mm 6 m/s 727 mmHg 91%
    09:00 -11°C° 0.1 mm 6 m/s 727 mmHg 91%
    10:00 -10°C° 0.1 mm 6 m/s 727 mmHg 91%
    11:00 -10°C° 0.2 mm 6 m/s 727 mmHg 91%
    12:00 -10°C° 0.2 mm 6 m/s 728 mmHg 91%
    13:00 -10°C° 0.2 mm 6 m/s 728 mmHg 91%
    14:00 -9°C° 0.2 mm 6 m/s 728 mmHg 91%
    15:00 -9°C° 0.2 mm 6 m/s 728 mmHg 91%
    16:00 -9°C° 0.2 mm 6 m/s 728 mmHg 91%
    17:00 -9°C° 0.2 mm 6 m/s 729 mmHg 91%
    18:00 -9°C° 0.2 mm 6 m/s 729 mmHg 91%
    19:00 -9°C° 0.2 mm 6 m/s 729 mmHg 91%
    20:00 -9°C° 0.1 mm 6 m/s 729 mmHg 91%
    21:00 -9°C° 0.1 mm 6 m/s 729 mmHg 91%
    22:00 -9°C° 0.1 mm 6 m/s 729 mmHg 91%
    23:00 -8°C° 0.2 mm 6 m/s 729 mmHg 91%

    Après-demain, 22 Février, Vendredi

    Heure Température Précipitation Vent Pression Humidité
    00:00 -8°C° 0.2 mm 6 m/s 729 mmHg 91%
    01:00 -6°C° 0.2 mm 6 m/s 729 mmHg 91%
    02:00 -6°C° 0.1 mm 6 m/s 729 mmHg 91%
    03:00 -6°C° 0.1 mm 6 m/s 729 mmHg 90%
    04:00 -6°C° 0.1 mm 6 m/s 729 mmHg 90%
    05:00 -6°C° 0 mm 6 m/s 729 mmHg 90%
    06:00 -6°C° 0 mm 6 m/s 729 mmHg 90%
    07:00 -6°C° 0 mm 5 m/s 729 mmHg 90%
    08:00 -6°C° 0.1 mm 5 m/s 729 mmHg 90%
    09:00 -6°C° 0.1 mm 5 m/s 729 mmHg 90%
    10:00 -5°C° 0.1 mm 5 m/s 729 mmHg 89%
    11:00 -5°C° 0.1 mm 5 m/s 729 mmHg 89%
    12:00 -4°C° 0.1 mm 6 m/s 729 mmHg 88%
    13:00 -4°C° 0.1 mm 6 m/s 729 mmHg 88%
    14:00 -4°C° 0.1 mm 5 m/s 729 mmHg 87%
    15:00 -4°C° 0.1 mm 5 m/s 729 mmHg 86%
    16:00 -3°C° 0.1 mm 4 m/s 729 mmHg 85%
    17:00 -3°C° 0.1 mm 4 m/s 729 mmHg 85%
    18:00 -3°C° 0.1 mm 4 m/s 729 mmHg 86%
    19:00 -3°C° 0.1 mm 4 m/s 729 mmHg 87%
    20:00 -4°C° 0.3 mm 4 m/s 729 mmHg 88%
    21:00 -5°C° 0.3 mm 5 m/s 730 mmHg 89%
    22:00 -5°C° 0.3 mm 5 m/s 730 mmHg 90%
    23:00 -7°C° 0.2 mm 5 m/s 731 mmHg 89%

    23 Février, Samedi

    Heure Température Précipitation Vent Pression Humidité
    00:00 -8°C° 0.2 mm 5 m/s 731 mmHg 89%
    01:00 -11°C° 0.2 mm 5 m/s 732 mmHg 88%
    02:00 -11°C° 0 mm 4 m/s 732 mmHg 90%
    03:00 -12°C° 0 mm 4 m/s 733 mmHg 91%
    04:00 -14°C° 0 mm 3 m/s 734 mmHg 93%
    05:00 -13°C° 0.1 mm 3 m/s 734 mmHg 93%
    06:00 -14°C° 0.1 mm 4 m/s 734 mmHg 93%
    07:00 -12°C° 0.1 mm 4 m/s 735 mmHg 93%
    08:00 -12°C° 0.1 mm 4 m/s 735 mmHg 92%
    09:00 -11°C° 0.1 mm 4 m/s 735 mmHg 91%
    10:00 -11°C° 0.1 mm 5 m/s 736 mmHg 90%
    11:00 -11°C° 0.1 mm 5 m/s 736 mmHg 88%
    12:00 -10°C° 0.1 mm 5 m/s 736 mmHg 87%
    13:00 -10°C° 0.1 mm 5 m/s 736 mmHg 85%
    14:00 -10°C° 0.1 mm 5 m/s 736 mmHg 87%
    15:00 -11°C° 0.1 mm 5 m/s 736 mmHg 89%
    16:00 -11°C° 0.1 mm 5 m/s 737 mmHg 90%
    17:00 -12°C° 0.1 mm 5 m/s 737 mmHg 91%
    18:00 -12°C° 0.1 mm 5 m/s 737 mmHg 91%
    19:00 -12°C° 0.1 mm 5 m/s 738 mmHg 92%
    20:00 -12°C° 0.2 mm 5 m/s 738 mmHg 92%
    21:00 -12°C° 0.2 mm 5 m/s 738 mmHg 93%
    22:00 -11°C° 0.2 mm 4 m/s 738 mmHg 93%
    23:00 -11°C° 0.1 mm 4 m/s 738 mmHg 94%

    24 Février, Dimanche

    Heure Température Précipitation Vent Pression Humidité
    00:00 -11°C° 0.1 mm 4 m/s 739 mmHg 94%
    01:00 -10°C° 0.1 mm 3 m/s 739 mmHg 95%
    02:00 -12°C° 0.1 mm 3 m/s 739 mmHg 95%
    03:00 -12°C° 0.1 mm 3 m/s 739 mmHg 96%
    04:00 -13°C° 0.1 mm 3 m/s 739 mmHg 96%
    05:00 -12°C° 0.1 mm 3 m/s 739 mmHg 96%
    06:00 -12°C° 0.1 mm 3 m/s 739 mmHg 96%
    07:00 -10°C° 0.1 mm 3 m/s 740 mmHg 95%
    08:00 -12°C° 0.1 mm 4 m/s 740 mmHg 94%
    09:00 -12°C° 0.1 mm 4 m/s 740 mmHg 94%
    10:00 -12°C° 0.1 mm 4 m/s 740 mmHg 93%
    11:00 -12°C° 0.1 mm 4 m/s 740 mmHg 92%
    12:00 -11°C° 0.1 mm 4 m/s 740 mmHg 91%
    13:00 -11°C° 0.1 mm 4 m/s 740 mmHg 90%
    14:00 -12°C° 0.1 mm 5 m/s 740 mmHg 90%
    15:00 -12°C° 0.1 mm 5 m/s 740 mmHg 90%
    16:00 -12°C° 0.1 mm 5 m/s 740 mmHg 90%
    17:00 -12°C° 0.1 mm 5 m/s 740 mmHg 91%
    18:00 -12°C° 0.1 mm 5 m/s 740 mmHg 91%
    19:00 -13°C° 0.1 mm 5 m/s 740 mmHg 92%
    20:00 -13°C° 0.1 mm 5 m/s 740 mmHg 92%
    21:00 -13°C° 0.1 mm 5 m/s 740 mmHg 92%
    22:00 -13°C° 0.1 mm 5 m/s 740 mmHg 92%
    23:00 -14°C° 0.1 mm 5 m/s 739 mmHg 92%

    25 Février, Lundi

    Heure Température Précipitation Vent Pression Humidité
    00:00 -14°C° 0.1 mm 5 m/s 739 mmHg 93%
    01:00 -15°C° 0.1 mm 5 m/s 739 mmHg 93%
    02:00 -15°C° 0.1 mm 5 m/s 739 mmHg 93%
    03:00 -15°C° 0.1 mm 4 m/s 739 mmHg 94%
    04:00 -15°C° 0.1 mm 4 m/s 739 mmHg 94%
    05:00 -15°C° 0.1 mm 4 m/s 738 mmHg 94%
    06:00 -15°C° 0.1 mm 4 m/s 738 mmHg 94%
    07:00 -16°C° 0.1 mm 4 m/s 738 mmHg 95%
    08:00 -15°C° 0.1 mm 4 m/s 737 mmHg 94%
    09:00 -15°C° 0.1 mm 4 m/s 737 mmHg 94%
    10:00 -14°C° 0.1 mm 4 m/s 737 mmHg 94%
    11:00 -12°C° 0.1 mm 4 m/s 737 mmHg 93%
    12:00 -12°C° 0.1 mm 4 m/s 736 mmHg 93%
    13:00 -11°C° 0.1 mm 4 m/s 736 mmHg 92%
    14:00 -11°C° 0.1 mm 5 m/s 736 mmHg 92%
    15:00 -11°C° 0.1 mm 5 m/s 735 mmHg 91%
    16:00 -11°C° 0.1 mm 5 m/s 735 mmHg 91%
    17:00 -11°C° 0.1 mm 5 m/s 734 mmHg 91%
    18:00 -11°C° 0.1 mm 5 m/s 734 mmHg 92%
    19:00 -11°C° 0.1 mm 5 m/s 734 mmHg 92%
    20:00 -11°C° 0.1 mm 5 m/s 733 mmHg 92%
    21:00 -11°C° 0.1 mm 5 m/s 733 mmHg 92%
    22:00 -11°C° 0.1 mm 5 m/s 733 mmHg 92%
    23:00 -11°C° 0.1 mm 5 m/s 732 mmHg 92%
    Voir plus